Weather in Thane

India     19°12′41″N   72°58′55″E
temp.,
°C
wind,
m/s
gust,
m/s
humid.,
%
clouds,
%
prec.,
mm/h
press.,
hPa
HPBL,
m
30 june, thu
thu3023:30+28sw4675100 7.4 1004513
02:30+27ssw5779100 3.9 1002613
05:30+27ssw4682100 6.3 1002523
08:30+28ssw357989 4.1 1004635
11:30+30sw566945 8.4 10041011
14:30+29wsw6773100 0.7 1003792
17:30+28w4679100 1.0 1002656
20:30+28sw3579100 0.4 1003491
1 july, fri
fri123:30+28wsw4780100 4.1 1004478
02:30+27wsw5882100 7.9 1002574
05:30+27sw5882100 15.4 1003545
08:30+29wsw587771 6.4 1005856
11:30+29wsw6875100 13.4 1005874
14:30+29wsw687598 6.4 1004720
17:30+29wsw687395 11.9 1003869
20:30+28sw587977 4.1 1005560
2 july, sat
sat223:30+28sw587980 6.5 1005515
02:30+27wsw598184 3.2 1003611
05:30+27wsw587949 5.5 1002561
08:30+29wsw587329 3.6 1004962
11:30+30wsw686692 7.5 10041209
14:30+30sw796698 4.9 10031203
17:30+29wsw797157 9.8 10021079
20:30+28sw697524 3.3 1004709
3 july, sun
sun323:30+28sw597738 5.4 1004675
02:30+27sw697858 2.0 1002663
05:30+27sw597860 4.7 1003594
08:30+29sw687393 2.5 1004954
11:30+30sw7867100 6.6 10041188
14:30+30sw7869100 4.1 10031143
17:30+29sw6973100 8.5 1003880
20:30+28wsw5876100 2.8 1004658
4 july, mon
mon423:30+28wsw5877100 5.4 1004611
02:30+27wsw5879100 1.9 1003549
05:30+27sw478098 4.4 1003466
08:30+29sw457399 1.6 1004889
11:30+31sw5664100 2.6 10041236
14:30+31sw6765100 2.6 10031199
17:30+30wsw677198 6.5 10021061
20:30+28sw4679100 3.9 1004550